DELTA 1 DEB, 21285

Orbit data source: Space-Track

DELTA 1 DEB, 21285 is space debris in SSO originally from a launch on Thu, 12 Jun 1975 UTC launched from the Air Force Western Test Range (AFWTR). Debris objects in space refer to the collection of defunct objects orbiting the Earth. Examples of debris include non-operational satellites, rocket bodies, and fragments generated from explosions, collisions, or faulty payload assembly.

Loading next visibility...
Identifier
21285, 1975-052W
Orbit
SSO
Country
Flag of USUS
Related business
Manufacturer
Unknown
Mission
Spacecraft
Bus & Motor
Unknown
Mass
Unknown
Launch date (UTC)
1975-06-12 (51 years ago)
Launch vehicle
Unknown
Launch site
Air Force Western Test Range (AFWTR)
Object type
Payload
Rocket body
Debris
Shape & HBR
Unknown shape, 0.5 m
Radar Cross Section
Medium (>0.1 m² and <1 m²)

Expand to show TLE details & history
Last TLE update: 10 hours ago

TLE from 10 hours ago
0 DELTA 1 DEB
1 21285U 75052W   26169.11337647 -.00000011  00000-0  55707-4 0  9994
2 21285  99.6361  19.1562 0019159 328.3754 152.2657 13.41280066718662
Epoch: 2026-06-18T02:43Z
TLE epoch observation values (Epoch: 2026-06-18T02:43:15.727Z)
Latitude
58.01915°
Longitude
-92.32501°
Altitude
1,126.899 km
Speed
7.288 km/s
True Right ascension
14h 19m 24s
True Declination
57° 52' 19"
Sunlit
Object was in daylight at epoch
Visualization orbit readout
Latitude
Unknown
Longitude
Unknown
Altitude
Unknown
Speed
Unknown
Apparent Right ascension
Unknown
Apparent Declination
Unknown
Sunlit
N/A
Visualization observer readout
Local Sidereal Time
23:07:31
Azimuth
Unknown
Elevation
Unknown
Doppler factor
Unknown
Orbital elements
Apogee altitude
1,116.155 km
Perigee altitude
1,087.494 km
Semi-major axis
7,479.961 km
Eccentricity
0.00192
Inclination
99.6361°
RAAN
19.1562°
Arg. of periapsis
328.3754°
True anomaly
152.36765°
Mean anomaly
152.2657°
Eccentric anomaly
152.3167°
Mean motion
3.35501 °/min
Orbital period
107.3 mins
BSTAR
0.000055707
Loading maneuver chart data...
Computing Atmospheric mass density...
Loading historical data...
Loading historical data...
Loading historical data...
Loading historical data...
Loading historical data...
Loading historical data...
Loading historical data...

Documentation

Showing up to 5 results
|